Weather History for KMUI - December, 2011

Change the Weather History Date:

Thursday, December 22, 2011

  Actual Average Record
Temperature  
Mean Temperature 50 °F -  
Max Temperature 56 °F 36 °F 62 °F (2013)
Min Temperature 44 °F 26 °F 10 °F (2008)
Degree Days  
Heating Degree Days 15    
Moisture  
Dew Point 47 °F    
Average Humidity 91    
Maximum Humidity 99    
Minimum Humidity 70    
Precipitation  
Precipitation 0.07 in - - ()
Sea Level Pressure  
Sea Level Pressure 30.03 in    
Wind  
Wind Speed 5 mph (WNW)    
Max Wind Speed 9 mph    
Max Gust Speed -    
Visibility 10 miles    
Events Rain    
Averages and records for this station are not official NWS values.
T = Trace of Precipitation, MM = Missing Value Source: NWS Daily Summary

Daily Weather History Graph

Daily Weather History Graph

Search for Another Location

Airport or City:

Trip Planner

Search our weather history database for the weather conditions in past years. The results will help you decide how hot, cold, wet, or windy it might be!

Date:

Astronomy

Dec. 22, 2011 Rise Set
Actual Time 7:26 AM EST 4:43 PM EST
Civil Twilight 6:55 AM EST 5:14 PM EST
Nautical Twilight 6:21 AM EST 5:48 PM EST
Astronomical Twilight 5:47 AM EST 6:21 PM EST
Moon 5:07 AM EST (12/22) 2:51 PM EST (12/22)
Length of Visible Light 10h 18m
Length of Day
9h 17m
Waning Crescent, 6% of the Moon is Illuminated
Dec 22
Waning Crescent
Dec 24
New
Jan 1
First Quarter
Jan 9
Full
Jan 16
Last Quarter

Hourly Weather History & Observations

Time (EST) Temp. Windchill Dew Point Humidity Pressure Visibility Wind Dir Wind Speed Gust Speed Precip Events Conditions
12:55 AM 51.4 °F - 50.4 °F 96% 29.91 in 10.0 mi WSW 6.9 mph - N/A   Scattered Clouds
1:55 AM 52.7 °F - 48.6 °F 86% 29.94 in 10.0 mi WNW 9.2 mph - N/A   Mostly Cloudy
2:55 AM 51.8 °F - 48.6 °F 89% 29.97 in 10.0 mi West 4.6 mph - N/A   Overcast
3:55 AM 50.9 °F - 49.8 °F 96% 30.00 in 10.0 mi West 4.6 mph - N/A   Overcast
4:55 AM 51.1 °F - 49.6 °F 95% 30.03 in 10.0 mi WSW 6.9 mph - N/A   Overcast
5:55 AM 51.1 °F - 48.2 °F 90% 30.05 in 10.0 mi West 3.5 mph - N/A   Overcast
6:55 AM 45.0 °F - 44.6 °F 99% 30.06 in 10.0 mi Calm Calm - N/A   Overcast
7:55 AM 44.4 °F 42.9 °F 44.1 °F 99% 30.10 in 10.0 mi WSW 3.5 mph - N/A   Overcast
8:55 AM 46.9 °F - 46.4 °F 98% 30.12 in 10.0 mi Calm Calm - N/A   Overcast
9:55 AM 49.6 °F - 48.7 °F 97% 30.13 in 10.0 mi Calm Calm - N/A   Overcast
10:55 AM 52.3 °F - 51.4 °F 97% 30.10 in 10.0 mi South 3.5 mph - N/A   Overcast
11:55 AM 56.5 °F - 50.2 °F 79% 30.09 in 10.0 mi South 8.1 mph - N/A   Mostly Cloudy
12:55 PM 55.0 °F - 48.4 °F 78% 30.07 in 10.0 mi SW 5.8 mph - N/A   Overcast
1:55 PM 55.2 °F - 46.8 °F 73% 30.09 in 10.0 mi SW 5.8 mph - N/A   Overcast
2:55 PM 55.6 °F - 45.9 °F 70% 30.08 in 10.0 mi Variable 4.6 mph - N/A   Overcast
3:55 PM 54.3 °F - 46.6 °F 75% 30.04 in 10.0 mi NNE 5.8 mph - N/A   Mostly Cloudy
4:55 PM 51.3 °F - 48.9 °F 92% 30.07 in 10.0 mi Calm Calm - N/A   Mostly Cloudy
5:55 PM 46.0 °F - 45.5 °F 98% 30.04 in 10.0 mi Calm Calm - N/A   Clear
6:55 PM 45.9 °F 44.6 °F 45.3 °F 98% 30.05 in 10.0 mi NNE 3.5 mph - N/A   Mostly Cloudy
7:55 PM 44.4 °F 42.9 °F 43.9 °F 98% 30.02 in 10.0 mi NE 3.5 mph - N/A   Overcast
8:55 PM 46.6 °F - 45.7 °F 97% 30.01 in 10.0 mi Calm Calm - N/A   Overcast
9:55 PM 47.8 °F - 47.1 °F 97% 29.96 in 10.0 mi NE 5.8 mph - N/A   Mostly Cloudy
10:19 PM 50.0 °F - 48.2 °F 94% 29.97 in 10.0 mi NE 4.6 mph - N/A   Light Drizzle
10:55 PM 47.3 °F - 46.6 °F 97% 29.96 in 9.0 mi NE 3.5 mph - 0.01 in Rain Light Rain
11:55 PM 45.5 °F 43.2 °F 45.3 °F 99% 29.88 in 8.0 mi NE 4.6 mph - 0.06 in Rain Light Rain